Time,TemperatureF,DewpointF,PressureIn,WindDirection,WindDirectionDegrees,WindSpeedMPH,WindSpeedGustMPH,Humidity,HourlyPrecipIn,Conditions,Clouds,dailyrainin,SoftwareType,DateUTC
2013-03-02 00:01:00,45.0,41.0,30.19,South,189,0.0,0.0,85,0.00,,,0.00,,2013-03-02 08:01:00,
2013-03-02 00:11:00,45.0,41.0,30.19,South,189,0.0,0.0,85,0.00,,,0.00,,2013-03-02 08:11:00,
2013-03-02 00:21:00,44.0,40.0,30.19,South,189,0.0,0.0,86,0.00,,,0.00,,2013-03-02 08:21:00,
2013-03-02 00:32:00,43.0,39.0,30.18,South,189,0.0,0.0,86,0.00,,,0.00,,2013-03-02 08:32:00,
2013-03-02 00:42:00,43.0,39.0,30.18,South,189,0.0,0.0,86,0.00,,,0.00,,2013-03-02 08:42:00,
2013-03-02 00:52:00,43.0,39.0,30.19,South,189,0.0,0.0,86,0.00,,,0.00,,2013-03-02 08:52:00,
2013-03-02 01:01:00,43.0,39.0,30.19,South,189,0.0,0.0,87,0.00,,,0.00,,2013-03-02 09:01:00,
2013-03-02 01:11:00,43.0,39.0,30.18,South,189,0.0,0.0,86,0.00,,,0.00,,2013-03-02 09:11:00,
2013-03-02 01:21:00,43.0,39.0,30.18,South,189,0.0,0.0,86,0.00,,,0.00,,2013-03-02 09:21:00,
2013-03-02 01:31:00,43.0,39.0,30.17,South,189,0.0,0.0,86,0.00,,,0.00,,2013-03-02 09:31:00,
2013-03-02 01:42:00,43.0,39.0,30.17,South,189,0.0,0.0,86,0.00,,,0.00,,2013-03-02 09:42:00,
2013-03-02 01:52:00,43.0,39.0,30.17,South,189,0.0,0.0,86,0.00,,,0.00,,2013-03-02 09:52:00,
2013-03-02 02:01:00,43.0,39.0,30.17,South,189,0.0,0.0,86,0.00,,,0.00,,2013-03-02 10:01:00,
2013-03-02 02:11:00,43.0,39.0,30.17,South,189,0.0,0.0,86,0.00,,,0.00,,2013-03-02 10:11:00,
2013-03-02 02:21:00,43.0,39.0,30.17,South,189,0.0,0.0,87,0.00,,,0.00,,2013-03-02 10:21:00,
2013-03-02 02:31:00,43.0,39.0,30.16,South,189,0.0,0.0,87,0.00,,,0.00,,2013-03-02 10:31:00,
2013-03-02 02:41:00,43.0,39.0,30.16,South,189,0.0,0.0,87,0.00,,,0.00,,2013-03-02 10:41:00,
2013-03-02 02:51:00,43.0,39.0,30.16,South,189,0.0,0.0,87,0.00,,,0.00,,2013-03-02 10:51:00,
2013-03-02 03:01:00,42.0,38.0,30.16,South,189,0.0,0.0,87,0.00,,,0.00,,2013-03-02 11:01:00,
2013-03-02 03:11:00,42.0,38.0,30.16,South,189,0.0,0.0,87,0.00,,,0.00,,2013-03-02 11:11:00,
2013-03-02 03:21:00,43.0,39.0,30.12,South,189,0.0,0.0,87,0.00,,,0.00,,2013-03-02 11:21:00,
2013-03-02 03:31:00,43.0,39.0,30.12,South,189,0.0,0.0,87,0.00,,,0.00,,2013-03-02 11:31:00,
2013-03-02 03:41:00,43.0,39.0,30.12,South,189,0.0,0.0,87,0.00,,,0.00,,2013-03-02 11:41:00,
2013-03-02 03:52:00,42.0,39.0,30.14,South,189,0.0,0.0,88,0.00,,,0.00,,2013-03-02 11:52:00,
2013-03-02 04:02:00,42.0,39.0,30.13,South,189,0.0,0.0,88,0.00,,,0.00,,2013-03-02 12:02:00,
2013-03-02 04:11:00,42.0,39.0,30.13,South,189,0.0,0.0,88,0.00,,,0.00,,2013-03-02 12:11:00,
2013-03-02 04:21:00,42.0,39.0,30.13,South,189,0.0,0.0,88,0.00,,,0.00,,2013-03-02 12:21:00,
2013-03-02 04:32:00,42.0,39.0,30.13,South,189,0.0,0.0,88,0.00,,,0.00,,2013-03-02 12:32:00,
2013-03-02 04:42:00,42.0,39.0,30.13,South,189,0.0,0.0,88,0.00,,,0.00,,2013-03-02 12:42:00,
2013-03-02 04:52:00,42.0,39.0,30.14,South,189,0.0,0.0,90,0.00,,,0.00,,2013-03-02 12:52:00,
2013-03-02 05:01:00,42.0,39.0,30.11,South,189,0.0,0.0,89,0.00,,,0.00,,2013-03-02 13:01:00,
2013-03-02 05:11:00,42.0,39.0,30.11,South,189,0.0,0.0,89,0.00,,,0.00,,2013-03-02 13:11:00,
2013-03-02 05:21:00,42.0,39.0,30.14,South,189,0.0,0.0,88,0.00,,,0.00,,2013-03-02 13:21:00,
2013-03-02 05:31:00,42.0,39.0,30.12,South,189,0.0,0.0,89,0.00,,,0.00,,2013-03-02 13:31:00,
2013-03-02 05:41:00,42.0,39.0,30.12,South,189,0.0,0.0,89,0.00,,,0.00,,2013-03-02 13:41:00,
2013-03-02 05:52:00,42.0,39.0,30.14,South,189,0.0,0.0,89,0.00,,,0.00,,2013-03-02 13:52:00,
2013-03-02 06:01:00,42.0,39.0,30.13,South,189,0.0,0.0,89,0.00,,,0.00,,2013-03-02 14:01:00,
2013-03-02 06:11:00,42.0,39.0,30.13,South,189,0.0,0.0,89,0.00,,,0.00,,2013-03-02 14:11:00,
2013-03-02 06:21:00,42.0,39.0,30.13,South,189,0.0,0.0,89,0.00,,,0.00,,2013-03-02 14:21:00,
2013-03-02 06:31:00,42.0,39.0,30.13,South,189,0.0,0.0,90,0.00,,,0.00,,2013-03-02 14:31:00,
2013-03-02 06:41:00,42.0,39.0,30.13,South,189,0.0,0.0,90,0.00,,,0.00,,2013-03-02 14:41:00,
2013-03-02 06:52:00,41.0,38.0,30.11,South,189,0.0,0.0,89,0.00,,,0.00,,2013-03-02 14:52:00,
2013-03-02 07:01:00,41.0,38.0,30.14,South,189,0.0,0.0,90,0.00,,,0.00,,2013-03-02 15:01:00,
2013-03-02 07:11:00,41.0,38.0,30.14,South,189,0.0,0.0,90,0.00,,,0.00,,2013-03-02 15:11:00,
2013-03-02 07:21:00,41.0,38.0,30.14,South,189,0.0,0.0,90,0.00,,,0.00,,2013-03-02 15:21:00,
2013-03-02 07:31:00,42.0,39.0,30.15,South,189,0.0,0.0,90,0.00,,,0.00,,2013-03-02 15:31:00,
2013-03-02 07:41:00,42.0,39.0,30.15,South,189,0.0,0.0,90,0.00,,,0.00,,2013-03-02 15:41:00,
2013-03-02 07:51:00,42.0,40.0,30.15,South,189,0.0,0.0,91,0.00,,,0.00,,2013-03-02 15:51:00,
2013-03-02 08:01:00,44.0,42.0,30.14,South,189,0.0,0.0,91,0.00,,,0.00,,2013-03-02 16:01:00,
2013-03-02 08:11:00,44.0,42.0,30.14,South,189,0.0,0.0,91,0.00,,,0.00,,2013-03-02 16:11:00,
2013-03-02 08:21:00,44.0,42.0,30.14,South,189,0.0,0.0,91,0.00,,,0.00,,2013-03-02 16:21:00,
2013-03-02 08:31:00,45.0,43.0,30.14,South,189,0.0,0.0,91,0.00,,,0.00,,2013-03-02 16:31:00,
2013-03-02 08:41:00,45.0,43.0,30.14,South,189,0.0,0.0,91,0.00,,,0.00,,2013-03-02 16:41:00,
2013-03-02 08:51:00,46.0,44.0,30.14,South,189,0.0,0.0,92,0.00,,,0.00,,2013-03-02 16:51:00,
2013-03-02 09:01:00,46.0,44.0,30.14,South,189,0.0,0.0,92,0.00,,,0.00,,2013-03-02 17:01:00,
2013-03-02 09:11:00,49.0,47.0,30.14,South,189,0.0,0.0,92,0.00,,,0.00,,2013-03-02 17:11:00,
2013-03-02 09:21:00,49.0,47.0,30.14,South,189,0.0,0.0,92,0.00,,,0.00,,2013-03-02 17:21:00,
2013-03-02 09:31:00,52.0,49.0,30.14,South,188,0.0,2.0,90,0.00,,,0.00,,2013-03-02 17:31:00,
2013-03-02 09:42:00,52.0,49.0,30.14,South,188,0.0,2.0,90,0.00,,,0.00,,2013-03-02 17:42:00,
2013-03-02 09:52:00,52.0,49.0,30.14,South,189,0.0,1.0,89,0.00,,,0.00,,2013-03-02 17:52:00,
2013-03-02 10:01:00,55.0,50.0,30.13,South,188,0.0,2.0,82,0.00,,,0.00,,2013-03-02 18:01:00,
2013-03-02 10:11:00,55.0,50.0,30.13,South,188,0.0,2.0,82,0.00,,,0.00,,2013-03-02 18:11:00,
2013-03-02 10:21:00,56.0,50.0,30.14,South,189,0.0,1.0,79,0.00,,,0.00,,2013-03-02 18:21:00,
2013-03-02 10:31:00,59.0,51.0,30.11,NNW,328,0.0,1.0,75,0.00,,,0.00,,2013-03-02 18:31:00,
2013-03-02 10:41:00,59.0,51.0,30.11,NNW,328,0.0,1.0,75,0.00,,,0.00,,2013-03-02 18:41:00,
2013-03-02 10:51:00,60.0,50.0,30.12,East,92,0.0,3.0,70,0.00,,,0.00,,2013-03-02 18:51:00,
2013-03-02 11:01:00,61.0,50.0,30.11,East,92,0.0,2.0,68,0.00,,,0.00,,2013-03-02 19:01:00,
2013-03-02 11:11:00,61.0,50.0,30.11,East,92,0.0,2.0,68,0.00,,,0.00,,2013-03-02 19:11:00,
2013-03-02 11:21:00,62.0,51.0,30.11,East,92,0.0,3.0,67,0.00,,,0.00,,2013-03-02 19:21:00,
2013-03-02 11:31:00,65.0,53.0,30.10,East,85,0.0,2.0,64,0.00,,,0.00,,2013-03-02 19:31:00,
2013-03-02 11:42:00,65.0,53.0,30.10,East,85,0.0,2.0,64,0.00,,,0.00,,2013-03-02 19:42:00,
2013-03-02 11:52:00,65.0,51.0,30.08,East,85,0.0,0.0,60,0.00,,,0.00,,2013-03-02 19:52:00,
2013-03-02 12:01:00,66.0,51.0,30.09,East,85,0.0,0.0,58,0.00,,,0.00,,2013-03-02 20:01:00,
2013-03-02 12:11:00,66.0,51.0,30.09,East,85,0.0,0.0,58,0.00,,,0.00,,2013-03-02 20:11:00,
2013-03-02 12:21:00,66.0,51.0,30.09,East,85,0.0,0.0,58,0.00,,,0.00,,2013-03-02 20:21:00,
2013-03-02 12:31:00,68.0,51.0,30.08,SE,134,0.0,3.0,55,0.00,,,0.00,,2013-03-02 20:31:00,
2013-03-02 12:40:00,69.0,51.0,30.06,SE,126,0.0,3.0,53,0.00,,,0.00,,2013-03-02 20:40:00,
2013-03-02 12:41:00,68.0,51.0,30.08,SE,134,0.0,3.0,55,0.00,,,0.00,,2013-03-02 20:41:00,
2013-03-02 12:52:00,68.0,51.0,30.08,SE,134,0.0,3.0,55,0.00,,,0.00,,2013-03-02 20:52:00,
2013-03-02 13:02:00,69.0,51.0,30.06,SE,126,0.0,3.0,53,0.00,,,0.00,,2013-03-02 21:02:00,
2013-03-02 13:11:00,69.0,51.0,30.06,SE,126,0.0,3.0,53,0.00,,,0.00,,2013-03-02 21:11:00,
2013-03-02 13:21:00,69.0,51.0,30.06,SE,126,0.0,3.0,53,0.00,,,0.00,,2013-03-02 21:21:00,
2013-03-02 13:31:00,69.0,51.0,30.06,SE,126,0.0,3.0,53,0.00,,,0.00,,2013-03-02 21:31:00,